Regional Weather Roundup
Issued by NWS

Home | Current Version | Previous Version | Text Only | Print | Product List | Glossary Off
Versions: 1 2 3 4 5 6 7 8 9 10 11 12 13 14 15 16 17 18 19 20 21 22 23 24 25 26 27 28 29 30 31 32 33 34 35 36 37 38 39 40 41 42 43 44 45 46 47 48 49 50

552
ASUS43 KMKX 291700
RWRWI

WISCONSIN REGIONAL WEATHER ROUNDUP
NATIONAL WEATHER SERVICE MILWAUKEE/SULLIVAN WI
1200 PM CDT THU SEP 29 2016

NOTE: "FAIR" INDICATES FEW OR NO CLOUDS BELOW 12,000 FEET WITH NO
SIGNIFICANT WEATHER AND/OR OBSTRUCTIONS TO VISIBILITY.

WIZ001-002-006>008-014>016-023>028-291800-
NORTHWEST WISCONSIN

CITY           SKY/WX    TMP DP  RH WIND       PRES   REMARKS
SUPERIOR ARPT  CLOUDY    58  51  76 NE10      30.53S
ASHLAND        PTSUNNY   61  53  75 NE13      30.52S
HAYWARD        PTSUNNY   59  49  69 NE10      30.49F
SIREN          PTSUNNY   60  49  67 E9        30.49F
CUMBERLAND     MOSUNNY   59  48  67 NE6       30.48S
RICE LAKE      MOSUNNY   62  49  64 N7        30.49S
CHETEK         NOT AVBL
LADYSMITH      SUNNY     60  52  74 NE7       30.49S
EAU CLAIRE     NOT AVBL
MENOMONIE      SUNNY     63  51  63 N8        30.46S
NEW RICHMOND   PTSUNNY   60  50  68 NE7       30.48S
OSCEOLA        CLOUDY    61  50  68 N7        30.51S
$$

WIZ003>005-009-010-017-018-291800-
NORTH CENTRAL WISCONSIN

CITY           SKY/WX    TMP DP  RH WIND       PRES   REMARKS
MANITOWISH WTR NOT AVBL
ARBOR VITAE    MOSUNNY   61  53  74 NE9       30.48S
WOODRUFF       MOSUNNY   61  53  74 NE9       30.48S
RHINELANDER    SUNNY     62  53  72 NE7       30.47F
EAGLE RIVER    PTSUNNY   58  49  71 N8        30.48S
LAND O LAKES   CLOUDY    56  51  82 N8        30.51S
PHILLIPS       MOSUNNY   59  51  76 NE9       30.48R
TOMAHAWK       MOSUNNY   59  50  72 NE7       30.47F
MEDFORD        SUNNY     60  53  79 N9        30.45S
MERRILL        SUNNY     60  52  73 NE8       30.46S
$$

WIZ029-030-035-036-043>047-291800-
CENTRAL WISCONSIN

CITY           SKY/WX    TMP DP  RH WIND       PRES   REMARKS
WAUSAU         SUNNY     63  51  65 N8        30.42S
MOSINEE        SUNNY     63  54  72 N10       30.43S
MARSHFIELD     SUNNY     65  51  60 NE10      30.42S
STEVENS POINT  SUNNY     64  51  62 N10       30.41S
WAUPACA        SUNNY     69  53  55 N14       30.38S
WAUTOMA        SUNNY     69  52  54 N9G21     30.37R
WISC RAPIDS    SUNNY     67  53  61 N12G20    30.41S
CAMP DOUGLAS   NOT AVBL
$$

WIZ011>013-019>022-031-037>040-048>050-291800-
NORTHEAST WISCONSIN

CITY           SKY/WX    TMP DP  RH WIND       PRES   REMARKS
ANTIGO         SUNNY     62  52  71 N10       30.44S
SHAWANO        SUNNY     69  55  62 NE10      30.40S
OCONTO         NOT AVBL
STURGEON BAY   SUNNY     68  56  65 NE10      30.38S
GREEN BAY      SUNNY     66  58  75 NE21      30.37S
MANITOWOC      PTSUNNY   66  57  72 N20G26    30.33S
APPLETON       MOSUNNY   66  50  55 NE17G23   30.36R
CLINTONVILLE   SUNNY     68  52  56 NE10      30.39S
OSHKOSH        SUNNY     65  55  70 NE17G23   30.35S
$$

WIZ032>034-041-042-053>061-291800-
SOUTHWEST WISCONSIN

CITY           SKY/WX    TMP DP  RH WIND       PRES   REMARKS
LA CROSSE      SUNNY     65  53  65 NW12      30.41F
SPARTA         SUNNY     62  52  71 N8        30.41F
VIROQUA        SUNNY     64  51  63 N10       30.39F
BOSCOBEL       SUNNY     70  51  51 NE9G18    30.35F
PRAIRIE DU CHI SUNNY     64  50  59 NW10      30.36F
PLATTEVILLE    SUNNY     66  54  64 N16       30.33R
$$

WIZ056-057-062-063-064-067-068-291800-
SOUTH CENTRAL WISCONSIN

CITY           SKY/WX    TMP DP  RH WIND       PRES   REMARKS
REEDSBURG      NOT AVBL
BARABOO/DELLS  SUNNY     66  51  57 N10       30.35S
LONE ROCK      NOT AVBL
MINERAL POINT  SUNNY     66  52  59 N15       30.33S
MADISON        MOSUNNY   67  54  63 NE16G24   30.31S
MIDDLETON      SUNNY     66  54  64 NE15G23   30.33S
WATERTOWN      PTSUNNY   66  58  75 N14       30.29S
MONROE         SUNNY     63  54  72 N17G24    30.29S
JANESVILLE     PTSUNNY   66  55  68 N14G20    30.26R
$$

WIZ051-052-058>065-066-070>072-291800-
SOUTHEAST WISCONSIN

CITY           SKY/WX    TMP DP  RH WIND       PRES   REMARKS
MILWAUKEE      PTSUNNY   63  56  78 N15G24    30.28R
WAUKESHA       NOT AVBL
MILWAUKEE/TIMM PTSUNNY   64  55  72 NE21G31   30.28S
RACINE         CLOUDY    63  55  75 NE17G25   30.26R
BURLINGTON     PTSUNNY   64  54  69 NE23G35   30.25R
KENOSHA        CLOUDY    63  55  75 NE17G26   30.24R
FOND DU LAC    SUNNY     66  57  72 N17G25    30.34S
SHEBOYGAN      PTSUNNY   67  58  72 NE23G30   30.32R
WEST BEND      PTSUNNY   70  63  78 NE18G29   30.30R
JUNEAU         MOSUNNY   63  56  77 N20       30.32S
$$

LSZ147-162-291800-
LAKE SUPERIOR

STATION/POSITION TIME  TEMP    WIND        PRES    WAVE
                       AIR SEA DIR/SP/G            HT/PER
                 (UTC) (F)     (DEG/KT/KT) (MB)    (FT/S)
W MID LAKE BUOY  1550   55 55   50/  8/ 10 1033.5R   2/ 5
DEVILS ISLAND    1600   53      40/ 10/ 11 1034.1R
SAXON HARBOR     1600   57      40/ 11/ 13 1032.8S
$$

LMZ867-665-643>646-291800-
LAKE MICHIGAN

STATION/POSITION TIME  TEMP    WIND        PRES    WAVE
                       AIR SEA DIR/SP/G            HT/PER
                 (UTC) (F)     (DEG/KT/KT) (MB)    (FT/S)
CHAMBERS ISLAND  1600   62      10/ 16/ 20 1028.4S
N MID LAKE BUOY  1550   62 66   30/ 17/ 19 1028.3R   3/ 5
NORTHPORT PIER   1600   63      10/ 12/ 15 1028.8
SISTER BAY       1623   69      10/ 13/ 15   N/A
KEWAUNEE LAKESHO 1600   62      10/ 11/ 18 1027.3R
SHEBOYGAN LAKESH 1600   61      10/ 24/ 26 1026.0R
PORT WASHINGTON  1608   65      40/ 19/ 26 1026.4R
ATWATER BUOY     1600   56 52   20/ 14/ 19 1024.7R
MILWAUKEE LAKESH 1610   59      20/ 18/ 21   N/A
S MID LAKE BUOY  1550   64 69   40/ 21/ 27 1021.7R   7/ 8
KENOSHA   LAKESH 1600   59      20/ 20/ 22 1023.4R
$$

TC  - TEMPERATURE IN CELSIUS
VSB - VISIBILITY IN STATUTE MILES
WCI - WIND CHILL INDEX
HX  - HEAT INDEX





USA.gov is the U.S. government's official web portal to all federal, state and local government web resources and services.